Time,TemperatureF,DewpointF,PressureIn,WindDirection,WindDirectionDegrees,WindSpeedMPH,WindSpeedGustMPH,Humidity,HourlyPrecipIn,Conditions,Clouds,dailyrainin,SoftwareType,DateUTC
2013-08-13 11:54:00,77.0,67.0,30.09,North,350,2.0,-999.0,71,-99.99,,,-99.99,,2013-08-13 16:54:00,
2013-08-13 12:05:00,77.0,67.0,30.09,North,350,2.0,-999.0,71,-99.99,,,-99.99,,2013-08-13 17:05:00,
2013-08-13 12:16:00,77.0,67.0,30.09,North,350,2.0,-999.0,71,-99.99,,,-99.99,,2013-08-13 17:16:00,
2013-08-13 12:27:00,77.0,66.0,30.11,NE,36,1.0,-999.0,68,-99.99,,,-99.99,,2013-08-13 17:27:00,
2013-08-13 12:37:00,77.0,66.0,30.11,NE,36,1.0,-999.0,68,-99.99,,,-99.99,,2013-08-13 17:37:00,
2013-08-13 12:46:00,-999.0,-99.9,30.10,NE,34,1.0,-999.0,-999,-99.99,,,-99.99,,2013-08-13 17:46:00,
2013-08-13 12:56:00,78.0,67.0,30.10,NE,34,1.0,-999.0,69,-99.99,,,-99.99,,2013-08-13 17:56:00,
2013-08-13 13:00:00,78.0,66.0,30.09,ESE,106,1.0,-999.0,66,-99.99,,,-99.99,,2013-08-13 18:00:00,
2013-08-13 13:05:00,78.0,67.0,30.10,NE,34,1.0,-999.0,69,-99.99,,,-99.99,,2013-08-13 18:05:00,
2013-08-13 13:15:00,78.0,67.0,30.10,NE,34,1.0,-999.0,69,-99.99,,,-99.99,,2013-08-13 18:15:00,
2013-08-13 13:25:00,78.0,66.0,30.09,ESE,106,1.0,-999.0,66,-99.99,,,-99.99,,2013-08-13 18:25:00,
2013-08-13 13:37:00,78.0,66.0,30.09,ESE,106,1.0,-999.0,66,-99.99,,,-99.99,,2013-08-13 18:37:00,
2013-08-13 13:56:00,78.0,66.0,30.09,ESE,106,1.0,-999.0,66,-99.99,,,-99.99,,2013-08-13 18:56:00,
2013-08-13 14:25:00,78.0,63.0,30.09,ESE,123,2.0,-999.0,61,-99.99,,,-99.99,,2013-08-13 19:25:00,
2013-08-13 14:36:00,78.0,63.0,30.09,ESE,123,2.0,-999.0,61,-99.99,,,-99.99,,2013-08-13 19:36:00,
2013-08-13 14:55:00,79.0,63.0,30.08,NW,309,3.0,-999.0,58,-99.99,,,-99.99,,2013-08-13 19:55:00,
2013-08-13 15:04:00,79.0,63.0,30.08,NW,309,3.0,-999.0,58,-99.99,,,-99.99,,2013-08-13 20:04:00,
2013-08-13 15:15:00,79.0,63.0,30.08,NW,309,3.0,-999.0,58,-99.99,,,-99.99,,2013-08-13 20:15:00,
2013-08-13 15:22:00,79.0,63.0,30.08,NW,321,3.0,-999.0,58,-99.99,,,-99.99,,2013-08-13 20:22:00,
2013-08-13 15:32:00,79.0,63.0,30.08,NW,321,3.0,-999.0,58,-99.99,,,-99.99,,2013-08-13 20:32:00,
2013-08-13 15:53:00,79.0,62.0,30.07,NNW,328,1.0,-999.0,57,-99.99,,,-99.99,,2013-08-13 20:53:00,
2013-08-13 16:01:00,79.0,62.0,30.07,NNW,328,1.0,-999.0,57,-99.99,,,-99.99,,2013-08-13 21:01:00,
2013-08-13 16:11:00,79.0,62.0,30.07,NNW,328,1.0,-999.0,57,-99.99,,,-99.99,,2013-08-13 21:11:00,
2013-08-13 16:24:00,79.0,60.0,30.06,NNW,340,2.0,-999.0,53,-99.99,,,-99.99,,2013-08-13 21:24:00,
2013-08-13 16:34:00,79.0,60.0,30.06,NNW,340,2.0,-999.0,53,-99.99,,,-99.99,,2013-08-13 21:34:00,
2013-08-13 16:54:00,77.0,63.0,30.06,North,349,2.0,-999.0,62,-99.99,,,-99.99,,2013-08-13 21:54:00,
2013-08-13 17:03:00,77.0,63.0,30.06,North,349,2.0,-999.0,62,-99.99,,,-99.99,,2013-08-13 22:03:00,
2013-08-13 17:13:00,77.0,63.0,30.06,North,349,2.0,-999.0,62,-99.99,,,-99.99,,2013-08-13 22:13:00,
2013-08-13 17:22:00,77.0,65.0,30.06,SE,140,1.0,-999.0,67,-99.99,,,-99.99,,2013-08-13 22:22:00,
2013-08-13 17:35:00,77.0,65.0,30.06,SE,140,1.0,-999.0,67,-99.99,,,-99.99,,2013-08-13 22:35:00,
2013-08-13 17:50:00,77.0,65.0,30.06,SE,140,1.0,-999.0,67,-99.99,,,-99.99,,2013-08-13 22:50:00,
2013-08-13 17:57:00,78.0,62.0,30.06,East,98,2.0,-999.0,59,-99.99,,,-99.99,,2013-08-13 22:57:00,
2013-08-13 18:03:00,78.0,62.0,30.06,East,98,2.0,-999.0,59,-99.99,,,-99.99,,2013-08-13 23:03:00,
2013-08-13 18:13:00,78.0,62.0,30.06,East,98,2.0,-999.0,59,-99.99,,,-99.99,,2013-08-13 23:13:00,
2013-08-13 18:26:00,76.0,63.0,30.06,ENE,67,1.0,-999.0,64,-99.99,,,-99.99,,2013-08-13 23:26:00,
2013-08-13 18:35:00,76.0,63.0,30.06,ENE,67,1.0,-999.0,64,-99.99,,,-99.99,,2013-08-13 23:35:00,
2013-08-13 18:57:00,75.0,63.0,30.06,NW,323,1.0,-999.0,67,-99.99,,,-99.99,,2013-08-13 23:57:00,
2013-08-13 19:03:00,75.0,63.0,30.06,NW,323,1.0,-999.0,67,-99.99,,,-99.99,,2013-08-14 00:03:00,
2013-08-13 19:11:00,75.0,63.0,30.06,NW,323,1.0,-999.0,67,-99.99,,,-99.99,,2013-08-14 00:11:00,
2013-08-13 19:22:00,75.0,63.0,30.06,ENE,69,0.0,-999.0,67,-99.99,,,-99.99,,2013-08-14 00:22:00,
2013-08-13 19:32:00,75.0,63.0,30.06,ENE,69,0.0,-999.0,67,-99.99,,,-99.99,,2013-08-14 00:32:00,
2013-08-13 19:42:00,75.0,63.0,30.06,ENE,69,0.0,-999.0,67,-99.99,,,-99.99,,2013-08-14 00:42:00,
2013-08-13 19:52:00,73.0,63.0,30.06,SE,126,0.0,-999.0,70,-99.99,,,-99.99,,2013-08-14 00:52:00,
2013-08-13 20:01:00,73.0,63.0,30.06,SE,126,0.0,-999.0,70,-99.99,,,-99.99,,2013-08-14 01:01:00,
2013-08-13 20:11:00,73.0,63.0,30.06,SE,126,0.0,-999.0,70,-99.99,,,-99.99,,2013-08-14 01:11:00,
2013-08-13 20:21:00,71.0,65.0,30.06,North,5,0.0,-999.0,80,-99.99,,,-99.99,,2013-08-14 01:21:00,
2013-08-13 20:32:00,71.0,65.0,30.06,North,5,0.0,-999.0,80,-99.99,,,-99.99,,2013-08-14 01:32:00,
2013-08-13 20:52:00,68.0,64.0,30.07,North,5,0.0,-999.0,88,-99.99,,,-99.99,,2013-08-14 01:52:00,
2013-08-13 21:02:00,68.0,64.0,30.07,North,5,0.0,-999.0,88,-99.99,,,-99.99,,2013-08-14 02:02:00,
2013-08-13 21:11:00,68.0,64.0,30.07,North,5,0.0,-999.0,88,-99.99,,,-99.99,,2013-08-14 02:11:00,
2013-08-13 21:21:00,66.0,63.0,30.08,North,5,0.0,-999.0,90,-99.99,,,-99.99,,2013-08-14 02:21:00,
2013-08-13 21:32:00,66.0,63.0,30.08,North,5,0.0,-999.0,90,-99.99,,,-99.99,,2013-08-14 02:32:00,
2013-08-13 21:42:00,66.0,63.0,30.08,North,5,0.0,-999.0,90,-99.99,,,-99.99,,2013-08-14 02:42:00,
2013-08-13 21:52:00,65.0,62.0,30.09,North,5,0.0,-999.0,91,-99.99,,,-99.99,,2013-08-14 02:52:00,
2013-08-13 22:01:00,65.0,62.0,30.09,North,5,0.0,-999.0,91,-99.99,,,-99.99,,2013-08-14 03:01:00,
2013-08-13 22:22:00,64.0,62.0,30.11,North,5,0.0,-999.0,93,-99.99,,,-99.99,,2013-08-14 03:22:00,
2013-08-13 22:30:00,63.0,61.0,30.12,North,5,0.0,-999.0,94,-99.99,,,-99.99,,2013-08-14 03:30:00,
2013-08-13 22:33:00,64.0,62.0,30.11,North,5,0.0,-999.0,93,-99.99,,,-99.99,,2013-08-14 03:33:00,
2013-08-13 22:43:00,64.0,62.0,30.11,North,5,0.0,-999.0,93,-99.99,,,-99.99,,2013-08-14 03:43:00,
2013-08-13 22:53:00,63.0,61.0,30.12,North,5,0.0,-999.0,94,-99.99,,,-99.99,,2013-08-14 03:53:00,
2013-08-13 23:03:00,63.0,61.0,30.12,North,5,0.0,-999.0,94,-99.99,,,-99.99,,2013-08-14 04:03:00,
2013-08-13 23:12:00,63.0,61.0,30.12,North,5,0.0,-999.0,94,-99.99,,,-99.99,,2013-08-14 04:12:00,
2013-08-13 23:23:00,63.0,61.0,30.12,North,5,0.0,-999.0,94,-99.99,,,-99.99,,2013-08-14 04:23:00,